Location: Unspecified
(0.0000°N, 0.0000°E)
Time: 06:27:41
(UTC+00:00)

Envisat - Pass Details

Date: 23 July 2021
Orbit: 764 x 766 km, 98.2° (Epoch: 31 July)

Event Time Altitude Azimuth Distance (km) Brightness Sun altitude
Rises 05:29:58 0° 354° (N) 3,212 6.4 -8.6°
Reaches altitude 10° 05:32:28 10° 344° (NNW) 2,290 5.5 -8.0°
Maximum altitude 05:36:54 32° 282° (WNW) 1,296 3.8 -7.0°
Drops below altitude 10° 05:41:23 10° 220° (SW) 2,299 5.0 -5.9°
Sets 05:43:55 0° 210° (SSW) 3,228 5.8 -5.3°
